Regional Weather Roundup
Issued by NWS

Home | Current Version | Previous Version | Text Only | Print | Product List | Glossary On
Versions: 1 2 3 4 5 6 7 8 9 10 11 12 13 14 15 16 17 18 19 20 21 22 23 24 25 26 27 28 29 30 31 32 33 34 35 36 37 38 39 40 41 42 43 44 45 46 47 48 49 50
000
ASUS45 KCYS 201810
RWRWY

WYOMING REGIONAL WEATHER ROUNDUP
NATIONAL WEATHER SERVICE CHEYENNE WY
1200 PM MDT SUN AUG 20 2017

NOTE:  "FAIR" INDICATES FEW OR NO CLOUDS BELOW 12,000 FEET
WITH NO SIGNIFICANT WEATHER AND/OR OBSTRUCTIONS TO VISIBILITY.

WYZ001-201900-
YELLOWSTONE NATIONAL PARK

CITY           SKY/WX    TMP DP  RH WIND       PRES   REMARKS
LK YELLOWSTONE   N/A     64  39  39 CALM      30.27F
6HR MIN TEMP:  34; 6HR MAX TEMP:  64;

W YELLOWSTONE  NOT AVBL

$$
WYZ002>013-054>058-071-098>099-201900-
NORTHERN WYOMING

CITY           SKY/WX    TMP DP  RH WIND       PRES   REMARKS
JACKSON        FAIR      74  34  23 S12       30.18F
CODY           FAIR      69  43  38 N7        30.10F
GREYBULL       FAIR      74  38  27 E5        30.03F
6HR MIN TEMP:  53; 6HR MAX TEMP:  74;

WORLAND        FAIR      72  42  34 VRB5      30.04F
6HR MIN TEMP:  50; 6HR MAX TEMP:  73;

SHERIDAN       FAIR      77  44  30 VRB3      30.02F
6HR MIN TEMP:  47; 6HR MAX TEMP:  77;

BUFFALO        FAIR      78  38  23 S17       30.06F
6HR MIN TEMP:  51; 6HR MAX TEMP:  78;

GILLETTE       FAIR      78  45  30 S23G36    30.05F
6HR MIN TEMP:  48; 6HR MAX TEMP:  78;

HULETT         FAIR      77  46  33 E12       30.08F
NEWCASTLE      FAIR      79  37  22 SE16G29   30.09F

$$
WYZ014>020-022>026-101>103-201900-
CENTRAL WYOMING

CITY           SKY/WX    TMP DP  RH WIND       PRES   REMARKS
BIG PINEY      FAIR      74  35  24 VRB5      30.24F
6HR MIN TEMP:  38; 6HR MAX TEMP:  74;

PINEDALE       FAIR      73  28  19 CALM      30.25F
DUBOIS         FAIR      75  23  14 W29G37    30.19F
LANDER           N/A    N/A N/A N/A MISG      30.09F
RIVERTON       FAIR      77  30  17 CALM      30.10F
6HR MIN TEMP:  49; 6HR MAX TEMP:  77;

CASPER         FAIR      77  36  22 SE9       30.10F
6HR MIN TEMP:  46; 6HR MAX TEMP:  77;

DOUGLAS        FAIR      76  47  35 SE18      30.12F
6HR MIN TEMP:  47; 6HR MAX TEMP:  76;


$$
WYZ021-027>030-104>119-201900-
SOUTHERN WYOMING

CITY           SKY/WX    TMP DP  RH WIND       PRES   REMARKS
EVANSTON       FAIR      79  35  20 SW13G20   30.25S
6HR MIN TEMP:  54; 6HR MAX TEMP:  80;

FORT BRIDGER   CLEAR     82  30  15 NW13G22   30.26F
ROCK SPRINGS   FAIR      80  33  18 W8        30.21F
6HR MIN TEMP:  53; 6HR MAX TEMP:  80;

RAWLINS        FAIR      79  31  17 S6        30.22F
6HR MIN TEMP:  48; 6HR MAX TEMP:  79;

SARATOGA       FAIR      79  30  17 N5        30.25S
LARAMIE        FAIR      80  23  12 VRB6      30.25F
6HR MIN TEMP:  46; 6HR MAX TEMP:  80;

CHEYENNE       FAIR      76  41  28 NE12      30.19F
6HR MIN TEMP:  61; 6HR MAX TEMP:  76;

TORRINGTON     FAIR      77  54  44 SE9G17    30.09F
6HR MIN TEMP:  53; 6HR MAX TEMP:  78;

PINE BLUFFS    FAIR      77  48  36 N15       30.13F

$$



USA.gov is the U.S. government's official web portal to all federal, state and local government web resources and services.